Time,TemperatureF,DewpointF,PressureIn,WindDirection,WindDirectionDegrees,WindSpeedMPH,WindSpeedGustMPH,Humidity,HourlyPrecipIn,Conditions,Clouds,dailyrainin,SoftwareType,DateUTC
2013-09-25 00:00:00,62.4,57.2,29.89,ESE,108,0.0,2.0,83,0.00,,---,0.00,VWS V15.00,2013-09-25 04:00:00,
2013-09-25 00:01:00,62.4,57.2,29.89,ESE,108,0.0,2.0,83,0.00,,---,0.00,VWS V14.01,2013-09-25 04:01:00,
2013-09-25 00:02:00,62.4,57.2,29.89,ESE,108,0.0,2.0,83,0.00,,---,0.00,VWS V14.01,2013-09-25 04:02:00,
2013-09-25 00:07:00,62.3,57.1,29.89,ESE,122,0.0,2.0,83,0.00,,---,0.00,VWS V14.01,2013-09-25 04:07:00,
2013-09-25 00:12:00,62.3,57.1,29.89,ESE,115,1.0,2.0,83,0.00,,---,0.00,VWS V14.01,2013-09-25 04:12:00,
2013-09-25 00:16:00,62.2,57.0,29.89,East,90,1.0,2.0,83,0.00,,---,0.00,VWS V14.01,2013-09-25 04:16:00,
2013-09-25 00:21:00,62.1,56.9,29.89,ESE,121,1.0,3.0,83,0.00,,---,0.00,VWS V14.01,2013-09-25 04:21:00,
2013-09-25 00:26:00,62.1,57.2,29.89,SE,129,0.0,3.0,84,0.00,,---,0.00,VWS V14.01,2013-09-25 04:26:00,
2013-09-25 00:30:00,61.9,57.0,29.89,East,96,0.0,3.0,84,0.00,,---,0.00,VWS V15.00,2013-09-25 04:30:00,
2013-09-25 00:31:00,61.9,57.0,29.89,East,96,0.0,3.0,84,0.00,,---,0.00,VWS V14.01,2013-09-25 04:31:00,
2013-09-25 00:36:00,61.7,56.8,29.89,ESE,115,0.0,0.0,84,0.00,,---,0.00,VWS V14.01,2013-09-25 04:36:00,
2013-09-25 00:41:00,61.6,57.0,29.89,ESE,115,0.0,0.0,85,0.00,,---,0.00,VWS V14.01,2013-09-25 04:41:00,
2013-09-25 00:46:00,61.3,56.8,29.89,SE,124,0.0,0.0,85,0.00,,---,0.00,VWS V14.01,2013-09-25 04:46:00,
2013-09-25 00:51:00,61.2,56.7,29.89,ESE,111,0.0,0.0,85,0.00,,---,0.00,VWS V14.01,2013-09-25 04:51:00,
2013-09-25 00:56:00,61.1,56.6,29.89,ENE,59,0.0,0.0,85,0.00,,---,0.00,VWS V14.01,2013-09-25 04:56:00,
2013-09-25 01:00:00,61.0,56.8,29.89,NE,40,0.0,0.0,86,0.00,,---,0.00,VWS V15.00,2013-09-25 05:00:00,
2013-09-25 01:01:00,61.0,56.8,29.89,NE,40,0.0,0.0,86,0.00,,---,0.00,VWS V14.01,2013-09-25 05:01:00,
2013-09-25 01:06:00,60.9,56.7,29.89,NNE,28,0.0,0.0,86,0.00,,---,0.00,VWS V14.01,2013-09-25 05:06:00,
2013-09-25 01:11:00,61.0,56.8,29.89,East,91,1.0,2.0,86,0.00,,---,0.00,VWS V14.01,2013-09-25 05:11:00,
2013-09-25 01:16:00,60.9,56.7,29.89,East,91,0.0,2.0,86,0.00,,---,0.00,VWS V14.01,2013-09-25 05:16:00,
2013-09-25 01:21:00,60.8,56.6,29.88,ESE,115,2.0,2.0,86,0.00,,---,0.00,VWS V14.01,2013-09-25 05:21:00,
2013-09-25 01:26:00,60.8,56.6,29.88,ESE,115,0.0,2.0,86,0.00,,---,0.00,VWS V14.01,2013-09-25 05:26:00,
2013-09-25 01:30:00,60.6,56.4,29.88,SE,131,0.0,2.0,86,0.00,,---,0.00,VWS V15.00,2013-09-25 05:30:00,
2013-09-25 01:31:00,60.6,56.4,29.88,SE,131,0.0,2.0,86,0.00,,---,0.00,VWS V14.01,2013-09-25 05:31:00,
2013-09-25 01:36:00,60.5,56.6,29.88,SE,130,0.0,0.0,87,0.00,,---,0.00,VWS V14.01,2013-09-25 05:36:00,
2013-09-25 01:41:00,60.4,56.5,29.88,SSE,159,0.0,3.0,87,0.00,,---,0.00,VWS V14.01,2013-09-25 05:41:00,
2013-09-25 01:46:00,60.4,56.5,29.87,ESE,110,0.0,3.0,87,0.00,,---,0.00,VWS V14.01,2013-09-25 05:46:00,
2013-09-25 01:51:00,60.3,56.4,29.87,NNE,26,0.0,3.0,87,0.00,,---,0.00,VWS V14.01,2013-09-25 05:51:00,
2013-09-25 01:57:00,60.2,56.3,29.87,NE,47,0.0,3.0,87,0.00,,---,0.00,VWS V14.01,2013-09-25 05:57:00,
2013-09-25 02:00:00,60.2,56.6,29.87,NE,44,0.0,3.0,88,0.00,,---,0.00,VWS V15.00,2013-09-25 06:00:00,
2013-09-25 02:02:00,60.2,56.3,29.87,ENE,74,0.0,0.0,87,0.00,,---,0.00,VWS V14.01,2013-09-25 06:02:00,
2013-09-25 02:07:00,60.1,56.5,29.87,WSW,256,0.0,0.0,88,0.00,,---,0.00,VWS V14.01,2013-09-25 06:07:00,
2013-09-25 02:12:00,60.1,56.2,29.87,East,83,0.0,0.0,87,0.00,,---,0.00,VWS V14.01,2013-09-25 06:12:00,
2013-09-25 02:17:00,60.2,56.3,29.87,East,83,0.0,0.0,87,0.00,,---,0.00,VWS V14.01,2013-09-25 06:17:00,
2013-09-25 02:22:00,60.2,56.3,29.87,South,172,0.0,0.0,87,0.00,,---,0.00,VWS V14.01,2013-09-25 06:22:00,
2013-09-25 02:27:00,60.2,56.6,29.87,South,185,0.0,2.0,88,0.00,,---,0.00,VWS V14.01,2013-09-25 06:27:00,
2013-09-25 02:30:00,60.1,56.5,29.87,South,183,0.0,2.0,88,0.00,,---,0.00,VWS V15.00,2013-09-25 06:30:00,
2013-09-25 02:32:00,60.1,56.5,29.87,South,183,0.0,0.0,88,0.00,,---,0.00,VWS V14.01,2013-09-25 06:32:00,
2013-09-25 02:37:00,60.1,56.5,29.87,ESE,117,0.0,1.0,88,0.00,,---,0.00,VWS V14.01,2013-09-25 06:37:00,
2013-09-25 02:42:00,60.0,56.1,29.86,ESE,115,0.0,1.0,87,0.00,,---,0.00,VWS V14.01,2013-09-25 06:42:00,
2013-09-25 02:47:00,60.0,56.1,29.86,ENE,58,0.0,1.0,87,0.00,,---,0.00,VWS V14.01,2013-09-25 06:47:00,
2013-09-25 02:52:00,60.0,56.4,29.86,ENE,67,0.0,1.0,88,0.00,,---,0.00,VWS V14.01,2013-09-25 06:52:00,
2013-09-25 02:57:00,60.0,56.1,29.87,ESE,113,0.0,1.0,87,0.00,,---,0.00,VWS V14.01,2013-09-25 06:57:00,
2013-09-25 03:00:00,60.1,56.2,29.86,ESE,116,0.0,1.0,87,0.00,,---,0.00,VWS V15.00,2013-09-25 07:00:00,
2013-09-25 03:02:00,60.1,56.2,29.86,ESE,115,0.0,0.0,87,0.00,,---,0.00,VWS V14.01,2013-09-25 07:02:00,
2013-09-25 03:07:00,60.0,56.1,29.87,ESE,115,0.0,0.0,87,0.00,,---,0.00,VWS V14.01,2013-09-25 07:07:00,
2013-09-25 03:12:00,60.0,56.4,29.86,ESE,117,0.0,0.0,88,0.00,,---,0.00,VWS V14.01,2013-09-25 07:12:00,
2013-09-25 03:17:00,59.9,56.3,29.86,ESE,117,0.0,0.0,88,0.00,,---,0.00,VWS V14.01,2013-09-25 07:17:00,
2013-09-25 03:22:00,59.8,56.6,29.86,ESE,117,0.0,0.0,89,0.00,,---,0.00,VWS V14.01,2013-09-25 07:22:00,
2013-09-25 03:27:00,59.7,56.8,29.86,ESE,117,0.0,0.0,90,0.00,,---,0.00,VWS V14.01,2013-09-25 07:27:00,
2013-09-25 03:30:00,59.5,56.6,29.86,ESE,117,0.0,0.0,90,0.00,,---,0.00,VWS V15.00,2013-09-25 07:30:00,
2013-09-25 03:32:00,59.5,56.6,29.86,ESE,117,0.0,0.0,90,0.00,,---,0.00,VWS V14.01,2013-09-25 07:32:00,
2013-09-25 03:37:00,59.5,56.6,29.86,ESE,117,0.0,0.0,90,0.00,,---,0.00,VWS V14.01,2013-09-25 07:37:00,
2013-09-25 03:43:00,59.5,56.3,29.86,NNE,20,0.0,0.0,89,0.00,,---,0.00,VWS V14.01,2013-09-25 07:43:00,
2013-09-25 03:48:00,59.5,56.3,29.85,NNE,21,0.0,0.0,89,0.00,,---,0.00,VWS V14.01,2013-09-25 07:48:00,
2013-09-25 03:53:00,59.6,56.4,29.85,NE,56,0.0,0.0,89,0.00,,---,0.00,VWS V14.01,2013-09-25 07:53:00,
2013-09-25 03:58:00,59.6,56.4,29.85,ENE,57,0.0,0.0,89,0.00,,---,0.00,VWS V14.01,2013-09-25 07:58:00,
2013-09-25 04:00:00,59.7,56.2,29.85,ENE,57,0.0,0.0,88,0.00,,---,0.00,VWS V15.00,2013-09-25 08:00:00,
2013-09-25 04:03:00,59.6,56.0,29.85,NE,56,0.0,0.0,88,0.00,,---,0.00,VWS V14.01,2013-09-25 08:03:00,
2013-09-25 04:08:00,59.6,56.4,29.84,NNE,23,0.0,0.0,89,0.00,,---,0.00,VWS V14.01,2013-09-25 08:08:00,
2013-09-25 04:13:00,59.5,56.3,29.84,NNE,29,0.0,0.0,89,0.00,,---,0.00,VWS V14.01,2013-09-25 08:13:00,
2013-09-25 04:18:00,59.5,56.3,29.84,NNE,29,0.0,0.0,89,0.00,,---,0.00,VWS V14.01,2013-09-25 08:18:00,
2013-09-25 04:23:00,59.5,56.3,29.84,NNE,30,0.0,0.0,89,0.00,,---,0.00,VWS V14.01,2013-09-25 08:23:00,
2013-09-25 04:28:00,59.4,56.2,29.84,East,89,0.0,0.0,89,0.00,,---,0.00,VWS V14.01,2013-09-25 08:28:00,
2013-09-25 04:30:00,59.4,56.2,29.84,East,89,0.0,0.0,89,0.00,,---,0.00,VWS V15.00,2013-09-25 08:30:00,
2013-09-25 04:33:00,59.4,56.2,29.84,East,89,0.0,0.0,89,0.00,,---,0.00,VWS V14.01,2013-09-25 08:33:00,
2013-09-25 04:38:00,59.4,56.2,29.84,East,100,0.0,0.0,89,0.00,,---,0.00,VWS V14.01,2013-09-25 08:38:00,
2013-09-25 04:43:00,59.4,56.2,29.84,East,100,0.0,0.0,89,0.00,,---,0.00,VWS V14.01,2013-09-25 08:43:00,
2013-09-25 04:48:00,59.4,56.5,29.84,East,100,0.0,0.0,90,0.00,,---,0.00,VWS V14.01,2013-09-25 08:48:00,
2013-09-25 04:53:00,59.1,56.2,29.85,ESE,102,0.0,0.0,90,0.00,,---,0.00,VWS V14.01,2013-09-25 08:53:00,
2013-09-25 04:58:00,59.0,56.1,29.85,East,101,0.0,0.0,90,0.00,,---,0.00,VWS V14.01,2013-09-25 08:58:00,
2013-09-25 05:00:00,58.9,56.0,29.85,East,100,0.0,0.0,90,0.00,,---,0.00,VWS V15.00,2013-09-25 09:00:00,
2013-09-25 05:03:00,58.9,56.0,29.85,East,101,0.0,0.0,90,0.00,,---,0.00,VWS V14.01,2013-09-25 09:03:00,
2013-09-25 05:08:00,58.8,55.9,29.85,ESE,102,0.0,0.0,90,0.00,,---,0.00,VWS V14.01,2013-09-25 09:08:00,
2013-09-25 05:13:00,58.7,56.1,29.85,East,100,0.0,1.0,91,0.00,,---,0.00,VWS V14.01,2013-09-25 09:13:00,
2013-09-25 05:18:00,58.4,55.8,29.85,East,100,0.0,1.0,91,0.00,,---,0.00,VWS V14.01,2013-09-25 09:18:00,
2013-09-25 05:23:00,58.3,56.0,29.85,East,100,0.0,1.0,92,0.00,,---,0.00,VWS V14.01,2013-09-25 09:23:00,
2013-09-25 05:28:00,58.1,55.8,29.86,East,100,0.0,1.0,92,0.00,,---,0.00,VWS V14.01,2013-09-25 09:28:00,
2013-09-25 05:30:00,57.9,55.6,29.85,NNE,19,0.0,1.0,92,0.00,,---,0.00,VWS V15.00,2013-09-25 09:30:00,
2013-09-25 05:33:00,57.9,55.6,29.85,North,9,0.0,0.0,92,0.00,,---,0.00,VWS V14.01,2013-09-25 09:33:00,
2013-09-25 05:38:00,57.8,55.5,29.86,North,9,0.0,0.0,92,0.00,,---,0.00,VWS V14.01,2013-09-25 09:38:00,
2013-09-25 05:43:00,57.7,55.4,29.86,SSE,152,0.0,0.0,92,0.00,,---,0.00,VWS V14.01,2013-09-25 09:43:00,
2013-09-25 05:48:00,57.6,55.3,29.86,SSE,153,0.0,0.0,92,0.00,,---,0.00,VWS V14.01,2013-09-25 09:48:00,
2013-09-25 05:53:00,57.6,55.3,29.86,SSE,152,0.0,0.0,92,0.00,,---,0.00,VWS V14.01,2013-09-25 09:53:00,
2013-09-25 05:58:00,57.6,55.3,29.86,SSE,153,0.0,0.0,92,0.00,,---,0.00,VWS V14.01,2013-09-25 09:58:00,
2013-09-25 06:00:00,57.7,55.4,29.86,SSE,151,0.0,0.0,92,0.00,,---,0.00,VWS V15.00,2013-09-25 10:00:00,
2013-09-25 06:03:00,57.7,55.4,29.86,SSE,150,0.0,0.0,92,0.00,,---,0.00,VWS V14.01,2013-09-25 10:03:00,
2013-09-25 06:08:00,57.8,55.5,29.86,SSE,150,0.0,0.0,92,0.00,,---,0.00,VWS V14.01,2013-09-25 10:08:00,
2013-09-25 06:13:00,57.9,55.3,29.86,SSE,150,0.0,0.0,91,0.00,,---,0.00,VWS V14.01,2013-09-25 10:13:00,
2013-09-25 06:18:00,58.0,55.1,29.86,NNW,333,1.0,2.0,90,0.00,,---,0.00,VWS V14.01,2013-09-25 10:18:00,
2013-09-25 06:23:00,58.1,55.2,29.86,ENE,77,1.0,3.0,90,0.00,,---,0.00,VWS V14.01,2013-09-25 10:23:00,
2013-09-25 06:28:00,58.0,55.1,29.86,East,92,1.0,3.0,90,0.00,,---,0.00,VWS V14.01,2013-09-25 10:28:00,
2013-09-25 06:30:00,57.9,55.0,29.86,ENE,68,0.0,3.0,90,0.00,,---,0.00,VWS V15.00,2013-09-25 10:30:00,
2013-09-25 06:33:00,57.9,55.0,29.86,ENE,68,0.0,0.0,90,0.00,,---,0.00,VWS V14.01,2013-09-25 10:33:00,
2013-09-25 06:38:00,57.8,54.6,29.86,SE,124,0.0,1.0,89,0.00,,---,0.00,VWS V14.01,2013-09-25 10:38:00,
2013-09-25 06:43:00,57.6,54.7,29.86,NE,52,0.0,2.0,90,0.00,,---,0.00,VWS V14.01,2013-09-25 10:43:00,
2013-09-25 06:48:00,57.5,54.3,29.86,ESE,107,0.0,3.0,89,0.00,,---,0.00,VWS V14.01,2013-09-25 10:48:00,
2013-09-25 06:53:00,57.4,54.5,29.86,North,11,1.0,3.0,90,0.00,,---,0.00,VWS V14.01,2013-09-25 10:53:00,
2013-09-25 06:58:00,57.3,54.4,29.86,NNW,342,0.0,3.0,90,0.00,,---,0.00,VWS V14.01,2013-09-25 10:58:00,
2013-09-25 07:00:00,57.2,54.3,29.86,East,79,0.0,3.0,90,0.00,,---,0.00,VWS V15.00,2013-09-25 11:00:00,
2013-09-25 07:03:00,57.2,54.3,29.86,NNW,327,0.0,0.0,90,0.00,,---,0.00,VWS V14.01,2013-09-25 11:03:00,
2013-09-25 07:08:00,57.1,54.2,29.86,ENE,68,1.0,4.0,90,0.00,,---,0.00,VWS V14.01,2013-09-25 11:08:00,
2013-09-25 07:13:00,57.0,54.1,29.86,ENE,60,0.0,4.0,90,0.00,,---,0.00,VWS V14.01,2013-09-25 11:13:00,
2013-09-25 07:18:00,56.9,54.0,29.86,NNE,16,1.0,4.0,90,0.00,,---,0.00,VWS V14.01,2013-09-25 11:18:00,
2013-09-25 07:23:00,56.8,53.9,29.86,ENE,68,0.0,4.0,90,0.00,,---,0.00,VWS V14.01,2013-09-25 11:23:00,
2013-09-25 07:28:00,56.8,53.6,29.87,East,91,0.0,4.0,89,0.00,,---,0.00,VWS V14.01,2013-09-25 11:28:00,
2013-09-25 07:30:00,56.7,53.5,29.87,East,89,0.0,4.0,89,0.00,,---,0.00,VWS V15.00,2013-09-25 11:30:00,
2013-09-25 07:33:00,56.7,53.5,29.87,NE,56,0.0,1.0,89,0.00,,---,0.00,VWS V14.01,2013-09-25 11:33:00,
2013-09-25 07:38:00,56.5,53.6,29.87,ESE,116,0.0,2.0,90,0.00,,---,0.00,VWS V14.01,2013-09-25 11:38:00,
2013-09-25 07:43:00,56.4,53.5,29.87,NE,39,0.0,2.0,90,0.00,,---,0.00,VWS V14.01,2013-09-25 11:43:00,
2013-09-25 07:48:00,56.4,53.5,29.88,NNW,345,0.0,2.0,90,0.00,,---,0.00,VWS V14.01,2013-09-25 11:48:00,
2013-09-25 07:53:00,56.3,53.4,29.88,NNW,345,0.0,2.0,90,0.00,,---,0.00,VWS V14.01,2013-09-25 11:53:00,
2013-09-25 07:58:00,56.3,53.7,29.88,NNW,333,0.0,2.0,91,0.00,,---,0.00,VWS V14.01,2013-09-25 11:58:00,
2013-09-25 08:00:00,56.3,53.7,29.88,NNW,345,0.0,2.0,91,0.00,,---,0.00,VWS V15.00,2013-09-25 12:00:00,
2013-09-25 08:03:00,56.3,53.7,29.88,East,81,0.0,0.0,91,0.00,,---,0.00,VWS V14.01,2013-09-25 12:03:00,
2013-09-25 08:08:00,56.3,53.7,29.88,North,353,0.0,0.0,91,0.00,,---,0.00,VWS V14.01,2013-09-25 12:08:00,
2013-09-25 08:13:00,56.5,53.6,29.88,ENE,59,0.0,0.0,90,0.00,,---,0.00,VWS V14.01,2013-09-25 12:13:00,
2013-09-25 08:18:00,56.7,53.8,29.88,ENE,74,1.0,2.0,90,0.00,,---,0.00,VWS V14.01,2013-09-25 12:18:00,
2013-09-25 08:23:00,56.8,53.6,29.88,East,88,0.0,3.0,89,0.00,,---,0.00,VWS V14.01,2013-09-25 12:23:00,
2013-09-25 08:27:00,57.0,54.1,29.88,ENE,65,1.0,3.0,90,0.00,,---,0.00,VWS V14.01,2013-09-25 12:27:00,
2013-09-25 08:30:00,57.0,53.8,29.88,NE,37,1.0,3.0,89,0.00,,---,0.00,VWS V15.00,2013-09-25 12:30:00,
2013-09-25 08:32:00,57.0,53.8,29.88,NE,37,1.0,1.0,89,0.00,,---,0.00,VWS V14.01,2013-09-25 12:32:00,
2013-09-25 08:37:00,57.1,53.6,29.88,ENE,65,0.0,2.0,88,0.00,,---,0.00,VWS V14.01,2013-09-25 12:37:00,
2013-09-25 08:42:00,57.2,53.7,29.87,East,88,0.0,3.0,88,0.00,,---,0.00,VWS V14.01,2013-09-25 12:42:00,
2013-09-25 08:47:00,57.4,53.9,29.87,NNW,333,3.0,3.0,88,0.00,,---,0.00,VWS V14.01,2013-09-25 12:47:00,
2013-09-25 08:52:00,57.5,54.0,29.87,NE,41,0.0,5.0,88,0.00,,---,0.00,VWS V14.01,2013-09-25 12:52:00,
2013-09-25 08:57:00,57.6,53.8,29.87,East,86,1.0,5.0,87,0.00,,---,0.00,VWS V14.01,2013-09-25 12:57:00,
2013-09-25 09:00:00,57.8,54.0,29.87,East,96,0.0,5.0,87,0.00,,---,0.00,VWS V15.00,2013-09-25 13:00:00,
2013-09-25 09:02:00,57.8,54.0,29.87,East,81,1.0,1.0,87,0.00,,---,0.00,VWS V14.01,2013-09-25 13:02:00,
2013-09-25 09:07:00,58.0,53.8,29.87,East,99,0.0,2.0,86,0.00,,---,0.00,VWS V14.01,2013-09-25 13:07:00,
2013-09-25 09:12:00,58.2,54.0,29.87,ENE,68,0.0,4.0,86,0.00,,---,0.00,VWS V14.01,2013-09-25 13:12:00,
2013-09-25 09:17:00,58.3,53.8,29.87,ENE,73,1.0,6.0,85,0.00,,---,0.00,VWS V14.01,2013-09-25 13:17:00,
2013-09-25 09:22:00,58.6,53.8,29.87,ENE,75,2.0,6.0,84,0.00,,---,0.00,VWS V14.01,2013-09-25 13:22:00,
2013-09-25 09:27:00,58.8,54.0,29.87,ESE,106,2.0,6.0,84,0.00,,---,0.00,VWS V14.01,2013-09-25 13:27:00,
2013-09-25 09:30:00,59.0,53.8,29.87,East,95,0.0,6.0,83,0.00,,---,0.00,VWS V15.00,2013-09-25 13:30:00,
2013-09-25 09:32:00,59.1,54.0,29.87,East,95,0.0,0.0,83,0.00,,---,0.00,VWS V14.01,2013-09-25 13:32:00,
2013-09-25 09:37:00,59.3,54.2,29.88,SSW,200,1.0,3.0,83,0.00,,---,0.00,VWS V14.01,2013-09-25 13:37:00,
2013-09-25 09:43:00,59.7,54.5,29.88,South,183,0.0,3.0,83,0.00,,---,0.00,VWS V14.01,2013-09-25 13:43:00,
2013-09-25 09:48:00,60.1,54.3,29.88,South,174,1.0,3.0,81,0.00,,---,0.00,VWS V14.01,2013-09-25 13:48:00,
2013-09-25 09:53:00,60.7,54.8,29.89,SSE,154,1.0,3.0,81,0.00,,---,0.00,VWS V14.01,2013-09-25 13:53:00,
2013-09-25 09:58:00,61.1,54.5,29.89,NE,49,0.0,3.0,79,0.00,,---,0.00,VWS V14.01,2013-09-25 13:58:00,
2013-09-25 10:00:00,61.4,54.8,29.89,ESE,122,0.0,3.0,79,0.00,,---,0.00,VWS V15.00,2013-09-25 14:00:00,
2013-09-25 10:03:00,61.5,54.9,29.89,ESE,122,0.0,0.0,79,0.00,,---,0.00,VWS V14.01,2013-09-25 14:03:00,
2013-09-25 10:08:00,61.8,54.9,29.89,ENE,63,0.0,0.0,78,0.00,,---,0.00,VWS V14.01,2013-09-25 14:08:00,
2013-09-25 10:13:00,61.6,54.3,29.89,ESE,118,0.0,0.0,77,0.00,,---,0.00,VWS V14.01,2013-09-25 14:13:00,
2013-09-25 10:18:00,61.8,54.9,29.89,SSE,156,0.0,0.0,78,0.00,,---,0.00,VWS V14.01,2013-09-25 14:18:00,
2013-09-25 10:23:00,62.1,55.2,29.89,SE,131,0.0,1.0,78,0.00,,---,0.00,VWS V14.01,2013-09-25 14:23:00,
2013-09-25 10:28:00,62.2,54.9,29.89,NE,39,2.0,3.0,77,0.00,,---,0.00,VWS V14.01,2013-09-25 14:28:00,
2013-09-25 10:30:00,62.0,54.7,29.89,East,79,1.0,3.0,77,0.00,,---,0.00,VWS V15.00,2013-09-25 14:30:00,
2013-09-25 10:33:00,61.9,55.0,29.89,East,79,0.0,1.0,78,0.00,,---,0.00,VWS V14.01,2013-09-25 14:33:00,
2013-09-25 10:38:00,61.9,54.6,29.89,SSE,160,1.0,2.0,77,0.00,,---,0.00,VWS V14.01,2013-09-25 14:38:00,
2013-09-25 10:43:00,62.1,55.2,29.89,ENE,66,2.0,2.0,78,0.00,,---,0.00,VWS V14.01,2013-09-25 14:43:00,
2013-09-25 10:48:00,62.2,55.3,29.89,SSW,193,1.0,3.0,78,0.00,,---,0.00,VWS V14.01,2013-09-25 14:48:00,
2013-09-25 10:53:00,62.4,55.5,29.89,ENE,68,2.0,3.0,78,0.00,,---,0.00,VWS V14.01,2013-09-25 14:53:00,
2013-09-25 10:58:00,62.9,55.6,29.89,NE,46,3.0,4.0,77,0.00,,---,0.00,VWS V14.01,2013-09-25 14:58:00,
2013-09-25 11:00:00,63.4,56.4,29.89,ENE,70,2.0,4.0,78,0.00,,---,0.00,VWS V15.00,2013-09-25 15:00:00,
2013-09-25 11:03:00,63.6,56.3,29.89,ENE,70,0.0,2.0,77,0.00,,---,0.00,VWS V14.01,2013-09-25 15:03:00,
2013-09-25 11:08:00,64.5,56.8,29.89,ESE,120,1.0,3.0,76,0.00,,---,0.00,VWS V14.01,2013-09-25 15:08:00,
2013-09-25 11:13:00,65.0,56.9,29.89,ENE,63,2.0,5.0,75,0.00,,---,0.00,VWS V14.01,2013-09-25 15:13:00,
2013-09-25 11:18:00,65.7,57.6,29.89,NE,47,1.0,5.0,75,0.00,,---,0.00,VWS V14.01,2013-09-25 15:18:00,
2013-09-25 11:22:00,66.6,57.3,29.89,East,86,1.0,5.0,72,0.00,,---,0.00,VWS V14.01,2013-09-25 15:22:00,
2013-09-25 11:27:00,66.6,56.9,29.89,ENE,72,3.0,6.0,71,0.00,,---,0.00,VWS V14.01,2013-09-25 15:27:00,
2013-09-25 11:30:00,66.6,57.3,29.89,NE,46,1.0,7.0,72,0.00,,---,0.00,VWS V15.00,2013-09-25 15:30:00,
2013-09-25 11:32:00,66.7,57.4,29.89,NE,46,3.0,3.0,72,0.00,,---,0.00,VWS V14.01,2013-09-25 15:32:00,
2013-09-25 11:37:00,67.6,57.5,29.89,ESE,120,1.0,5.0,70,0.00,,---,0.00,VWS V14.01,2013-09-25 15:37:00,
2013-09-25 11:42:00,67.9,57.4,29.89,SW,233,2.0,6.0,69,0.00,,---,0.00,VWS V14.01,2013-09-25 15:42:00,
2013-09-25 11:47:00,68.1,58.0,29.89,NW,326,2.0,6.0,70,0.00,,---,0.00,VWS V14.01,2013-09-25 15:47:00,
2013-09-25 11:52:00,68.2,57.7,29.89,ESE,114,1.0,6.0,69,0.00,,---,0.00,VWS V14.01,2013-09-25 15:52:00,
2013-09-25 11:57:00,68.1,58.0,29.89,ESE,117,1.0,6.0,70,0.00,,---,0.00,VWS V14.01,2013-09-25 15:57:00,
2013-09-25 12:00:00,68.2,58.0,29.89,NNW,347,1.0,6.0,70,0.00,,---,0.00,VWS V15.00,2013-09-25 16:00:00,
2013-09-25 12:02:00,68.2,58.0,29.89,SE,136,1.0,3.0,70,0.00,,---,0.00,VWS V14.01,2013-09-25 16:02:00,
2013-09-25 12:07:00,68.5,57.9,29.89,NE,34,3.0,5.0,69,0.00,,---,0.00,VWS V14.01,2013-09-25 16:07:00,
2013-09-25 12:12:00,68.5,57.9,29.89,ENE,58,2.0,5.0,69,0.00,,---,0.00,VWS V14.01,2013-09-25 16:12:00,
2013-09-25 12:17:00,68.8,58.2,29.89,NNW,338,5.0,6.0,69,0.00,,---,0.00,VWS V14.01,2013-09-25 16:17:00,
2013-09-25 12:23:00,69.0,58.8,29.89,ENE,61,2.0,7.0,70,0.00,,---,0.00,VWS V14.01,2013-09-25 16:23:00,
2013-09-25 12:28:00,69.6,59.4,29.89,ENE,74,1.0,7.0,70,0.00,,---,0.00,VWS V14.01,2013-09-25 16:28:00,
2013-09-25 12:30:00,70.1,59.1,29.89,East,80,5.0,7.0,68,0.00,,---,0.00,VWS V15.00,2013-09-25 16:30:00,
2013-09-25 12:33:00,70.1,59.1,29.89,SE,127,1.0,7.0,68,0.00,,---,0.00,VWS V14.01,2013-09-25 16:33:00,
2013-09-25 12:38:00,70.6,59.1,29.88,ENE,61,5.0,7.0,67,0.00,,---,0.00,VWS V14.01,2013-09-25 16:38:00,
2013-09-25 12:43:00,70.4,58.9,29.89,NNW,336,4.0,7.0,67,0.00,,---,0.00,VWS V14.01,2013-09-25 16:43:00,
2013-09-25 12:48:00,70.1,59.1,29.89,NW,313,2.0,7.0,68,0.00,,---,0.00,VWS V14.01,2013-09-25 16:48:00,
2013-09-25 12:53:00,69.9,58.9,29.88,ENE,67,1.0,7.0,68,0.00,,---,0.00,VWS V14.01,2013-09-25 16:53:00,
2013-09-25 12:58:00,69.8,58.4,29.88,SW,231,0.0,7.0,67,0.00,,---,0.00,VWS V14.01,2013-09-25 16:58:00,
2013-09-25 13:00:00,69.8,58.4,29.88,East,85,3.0,7.0,67,0.00,,---,0.00,VWS V15.00,2013-09-25 17:00:00,
2013-09-25 13:03:00,69.7,58.3,29.88,ENE,72,1.0,3.0,67,0.00,,---,0.00,VWS V14.01,2013-09-25 17:03:00,
2013-09-25 13:08:00,69.7,58.7,29.88,ENE,64,0.0,3.0,68,0.00,,---,0.00,VWS V14.01,2013-09-25 17:08:00,
2013-09-25 13:13:00,69.7,58.7,29.88,NNE,30,4.0,6.0,68,0.00,,---,0.00,VWS V14.01,2013-09-25 17:13:00,
2013-09-25 13:18:00,69.6,58.6,29.87,SW,225,1.0,6.0,68,0.00,,---,0.00,VWS V14.01,2013-09-25 17:18:00,
2013-09-25 13:23:00,70.5,58.6,29.87,NNW,347,4.0,8.0,66,0.00,,---,0.00,VWS V14.01,2013-09-25 17:23:00,
2013-09-25 13:28:00,70.6,58.3,29.87,NNW,331,2.0,8.0,65,0.00,,---,0.00,VWS V14.01,2013-09-25 17:28:00,
2013-09-25 13:30:00,70.7,58.4,29.87,ENE,60,5.0,8.0,65,0.00,,---,0.00,VWS V15.00,2013-09-25 17:30:00,
2013-09-25 13:33:00,70.7,58.4,29.87,NNE,18,3.0,6.0,65,0.00,,---,0.00,VWS V14.01,2013-09-25 17:33:00,
2013-09-25 13:38:00,71.4,58.6,29.87,ESE,114,4.0,8.0,64,0.00,,---,0.00,VWS V14.01,2013-09-25 17:38:00,
2013-09-25 13:43:00,71.9,58.2,29.87,NNW,331,3.0,8.0,62,0.00,,---,0.00,VWS V14.01,2013-09-25 17:43:00,
2013-09-25 13:48:00,71.6,57.9,29.87,East,101,1.0,8.0,62,0.00,,---,0.00,VWS V14.01,2013-09-25 17:48:00,
2013-09-25 13:53:00,71.5,57.8,29.87,ENE,64,1.0,8.0,62,0.00,,---,0.00,VWS V14.01,2013-09-25 17:53:00,
2013-09-25 13:58:00,72.0,57.8,29.87,ENE,64,2.0,8.0,61,0.00,,---,0.00,VWS V14.01,2013-09-25 17:58:00,
2013-09-25 14:00:00,72.1,57.9,29.87,NNW,333,6.0,8.0,61,0.00,,---,0.00,VWS V15.00,2013-09-25 18:00:00,
2013-09-25 14:03:00,71.8,57.6,29.87,NNW,342,6.0,7.0,61,0.00,,---,0.00,VWS V14.01,2013-09-25 18:03:00,
2013-09-25 14:08:00,71.4,57.3,29.86,NNE,30,2.0,7.0,61,0.00,,---,0.00,VWS V14.01,2013-09-25 18:08:00,
2013-09-25 14:13:00,71.7,57.1,29.86,NE,53,4.0,9.0,60,0.00,,---,0.00,VWS V14.01,2013-09-25 18:13:00,
2013-09-25 14:18:00,71.7,57.1,29.86,NNW,342,3.0,9.0,60,0.00,,---,0.00,VWS V14.01,2013-09-25 18:18:00,
2013-09-25 14:23:00,71.5,56.9,29.86,NNW,328,2.0,9.0,60,0.00,,---,0.00,VWS V14.01,2013-09-25 18:23:00,
2013-09-25 14:28:00,71.8,57.2,29.86,ENE,69,1.0,9.0,60,0.00,,---,0.00,VWS V14.01,2013-09-25 18:28:00,
2013-09-25 14:30:00,72.4,56.3,29.85,ENE,58,2.0,9.0,57,0.00,,---,0.00,VWS V15.00,2013-09-25 18:30:00,
2013-09-25 14:33:00,72.6,57.0,29.85,NE,41,1.0,4.0,58,0.00,,---,0.00,VWS V14.01,2013-09-25 18:33:00,
2013-09-25 14:38:00,73.1,57.0,29.85,NNW,340,2.0,5.0,57,0.00,,---,0.00,VWS V14.01,2013-09-25 18:38:00,
2013-09-25 14:43:00,73.7,57.0,29.85,East,97,2.0,5.0,56,0.00,,---,0.00,VWS V14.01,2013-09-25 18:43:00,
2013-09-25 14:48:00,73.8,56.1,29.85,NE,40,3.0,6.0,54,0.00,,---,0.00,VWS V14.01,2013-09-25 18:48:00,
2013-09-25 14:53:00,73.5,55.9,29.85,NNW,343,3.0,7.0,54,0.00,,---,0.00,VWS V14.01,2013-09-25 18:53:00,
2013-09-25 14:58:00,73.1,55.0,29.85,NNE,30,3.0,7.0,53,0.00,,---,0.00,VWS V14.01,2013-09-25 18:58:00,
2013-09-25 15:00:00,73.1,55.0,29.85,ESE,115,4.0,7.0,53,0.00,,---,0.00,VWS V15.00,2013-09-25 19:00:00,
2013-09-25 15:03:00,73.3,55.2,29.85,ESE,117,4.0,6.0,53,0.00,,---,0.00,VWS V14.01,2013-09-25 19:03:00,
2013-09-25 15:08:00,73.1,55.5,29.85,NE,45,2.0,8.0,54,0.00,,---,0.00,VWS V14.01,2013-09-25 19:08:00,
2013-09-25 15:13:00,73.0,55.4,29.85,SE,141,5.0,8.0,54,0.00,,---,0.00,VWS V14.01,2013-09-25 19:13:00,
2013-09-25 15:18:00,72.8,54.2,29.85,ENE,71,2.0,8.0,52,0.00,,---,0.00,VWS V14.01,2013-09-25 19:18:00,
2013-09-25 15:23:00,72.8,54.2,29.84,WNW,293,0.0,8.0,52,0.00,,---,0.00,VWS V14.01,2013-09-25 19:23:00,
2013-09-25 15:28:00,72.7,55.1,29.84,East,99,3.0,8.0,54,0.00,,---,0.00,VWS V14.01,2013-09-25 19:28:00,
2013-09-25 15:30:00,73.0,55.4,29.84,ENE,58,5.0,8.0,54,0.00,,---,0.00,VWS V15.00,2013-09-25 19:30:00,
2013-09-25 15:33:00,73.0,54.9,29.84,ENE,58,0.0,5.0,53,0.00,,---,0.00,VWS V14.01,2013-09-25 19:33:00,
2013-09-25 15:38:00,73.1,55.0,29.84,East,83,0.0,5.0,53,0.00,,---,0.00,VWS V14.01,2013-09-25 19:38:00,
2013-09-25 15:43:00,73.2,54.5,29.84,NE,53,2.0,5.0,52,0.00,,---,0.00,VWS V14.01,2013-09-25 19:43:00,
2013-09-25 15:48:00,73.0,54.9,29.84,North,8,2.0,5.0,53,0.00,,---,0.00,VWS V14.01,2013-09-25 19:48:00,
2013-09-25 15:53:00,73.3,55.2,29.84,NW,319,5.0,5.0,53,0.00,,---,0.00,VWS V14.01,2013-09-25 19:53:00,
2013-09-25 15:58:00,73.2,54.5,29.84,ESE,120,0.0,5.0,52,0.00,,---,0.00,VWS V14.01,2013-09-25 19:58:00,
2013-09-25 16:00:00,73.1,54.5,29.84,ESE,108,0.0,5.0,52,0.00,,---,0.00,VWS V15.00,2013-09-25 20:00:00,
2013-09-25 16:03:00,73.2,54.5,29.84,ENE,68,2.0,4.0,52,0.00,,---,0.00,VWS V14.01,2013-09-25 20:03:00,
2013-09-25 16:08:00,73.1,55.0,29.84,NE,56,2.0,7.0,53,0.00,,---,0.00,VWS V14.01,2013-09-25 20:08:00,
2013-09-25 16:13:00,73.4,55.2,29.84,East,79,2.0,7.0,53,0.00,,---,0.00,VWS V14.01,2013-09-25 20:13:00,
2013-09-25 16:18:00,73.4,56.3,29.84,NNW,342,0.0,7.0,55,0.00,,---,0.00,VWS V14.01,2013-09-25 20:18:00,
2013-09-25 16:23:00,73.6,54.9,29.84,NE,45,2.0,7.0,52,0.00,,---,0.00,VWS V14.01,2013-09-25 20:23:00,
2013-09-25 16:28:00,73.5,54.8,29.84,NNW,346,2.0,7.0,52,0.00,,---,0.00,VWS V14.01,2013-09-25 20:28:00,
2013-09-25 16:30:00,73.1,55.0,29.84,NE,56,0.0,7.0,53,0.00,,---,0.00,VWS V15.00,2013-09-25 20:30:00,
2013-09-25 16:33:00,73.0,54.9,29.84,ESE,109,1.0,1.0,53,0.00,,---,0.00,VWS V14.01,2013-09-25 20:33:00,
2013-09-25 16:38:00,72.8,55.2,29.84,East,96,4.0,6.0,54,0.00,,---,0.00,VWS V14.01,2013-09-25 20:38:00,
2013-09-25 16:43:00,72.5,54.9,29.84,SE,130,2.0,6.0,54,0.00,,---,0.00,VWS V14.01,2013-09-25 20:43:00,
2013-09-25 16:48:00,72.1,55.1,29.85,ESE,113,3.0,6.0,55,0.00,,---,0.00,VWS V14.01,2013-09-25 20:48:00,
2013-09-25 16:53:00,71.8,54.8,29.84,North,354,2.0,6.0,55,0.00,,---,0.00,VWS V14.01,2013-09-25 20:53:00,
2013-09-25 16:58:00,71.9,55.4,29.84,NNW,348,2.0,6.0,56,0.00,,---,0.00,VWS V14.01,2013-09-25 20:58:00,
2013-09-25 17:00:00,72.0,55.0,29.84,NE,40,2.0,6.0,55,0.00,,---,0.00,VWS V15.00,2013-09-25 21:00:00,
2013-09-25 17:03:00,72.0,55.0,29.84,NNW,328,1.0,5.0,55,0.00,,---,0.00,VWS V14.01,2013-09-25 21:03:00,
2013-09-25 17:08:00,72.0,55.0,29.84,North,11,2.0,5.0,55,0.00,,---,0.00,VWS V14.01,2013-09-25 21:08:00,
2013-09-25 17:13:00,71.9,55.9,29.84,North,1,1.0,5.0,57,0.00,,---,0.00,VWS V14.01,2013-09-25 21:13:00,
2013-09-25 17:18:00,71.8,55.3,29.84,NE,43,0.0,5.0,56,0.00,,---,0.00,VWS V14.01,2013-09-25 21:18:00,
2013-09-25 17:23:00,71.8,54.8,29.84,NNE,23,0.0,5.0,55,0.00,,---,0.00,VWS V14.01,2013-09-25 21:23:00,
2013-09-25 17:28:00,71.8,55.3,29.84,NNW,335,1.0,5.0,56,0.00,,---,0.00,VWS V14.01,2013-09-25 21:28:00,
2013-09-25 17:30:00,71.8,55.8,29.84,West,280,1.0,5.0,57,0.00,,---,0.00,VWS V15.00,2013-09-25 21:30:00,
2013-09-25 17:33:00,71.7,55.7,29.84,WNW,294,1.0,1.0,57,0.00,,---,0.00,VWS V14.01,2013-09-25 21:33:00,
2013-09-25 17:38:00,71.8,55.8,29.84,NNE,30,0.0,3.0,57,0.00,,---,0.00,VWS V14.01,2013-09-25 21:38:00,
2013-09-25 17:43:00,71.9,55.9,29.84,NE,37,1.0,3.0,57,0.00,,---,0.00,VWS V14.01,2013-09-25 21:43:00,
2013-09-25 17:48:00,72.0,56.4,29.84,North,353,0.0,3.0,58,0.00,,---,0.00,VWS V14.01,2013-09-25 21:48:00,
2013-09-25 17:53:00,71.8,54.8,29.84,NE,46,1.0,3.0,55,0.00,,---,0.00,VWS V14.01,2013-09-25 21:53:00,
2013-09-25 17:58:00,71.7,56.2,29.84,NE,34,0.0,3.0,58,0.00,,---,0.00,VWS V14.01,2013-09-25 21:58:00,
2013-09-25 18:00:00,71.8,56.2,29.84,NE,40,0.0,3.0,58,0.00,,---,0.00,VWS V15.00,2013-09-25 22:00:00,
2013-09-25 18:03:00,72.0,56.0,29.84,NE,37,1.0,1.0,57,0.00,,---,0.00,VWS V14.01,2013-09-25 22:03:00,
2013-09-25 18:08:00,72.0,56.4,29.84,NNW,346,1.0,4.0,58,0.00,,---,0.00,VWS V14.01,2013-09-25 22:08:00,
2013-09-25 18:13:00,71.9,55.4,29.84,North,4,0.0,4.0,56,0.00,,---,0.00,VWS V14.01,2013-09-25 22:13:00,
2013-09-25 18:18:00,71.7,54.7,29.84,NNE,16,1.0,4.0,55,0.00,,---,0.00,VWS V14.01,2013-09-25 22:18:00,
2013-09-25 18:23:00,71.5,55.0,29.84,NE,47,0.0,4.0,56,0.00,,---,0.00,VWS V14.01,2013-09-25 22:23:00,
2013-09-25 18:28:00,71.4,55.4,29.84,NNW,342,2.0,5.0,57,0.00,,---,0.00,VWS V14.01,2013-09-25 22:28:00,
2013-09-25 18:30:00,71.3,55.3,29.84,NNE,13,2.0,5.0,57,0.00,,---,0.00,VWS V15.00,2013-09-25 22:30:00,
2013-09-25 18:33:00,71.3,55.3,29.84,NNW,346,1.0,2.0,57,0.00,,---,0.00,VWS V14.01,2013-09-25 22:33:00,
2013-09-25 18:38:00,71.2,55.7,29.84,NNW,338,1.0,4.0,58,0.00,,---,0.00,VWS V14.01,2013-09-25 22:38:00,
2013-09-25 18:43:00,70.9,55.4,29.84,WNW,297,2.0,4.0,58,0.00,,---,0.00,VWS V14.01,2013-09-25 22:43:00,
2013-09-25 18:48:00,70.7,55.7,29.84,ESE,113,0.0,4.0,59,0.00,,---,0.00,VWS V14.01,2013-09-25 22:48:00,
2013-09-25 18:53:00,70.5,55.5,29.84,North,4,2.0,4.0,59,0.00,,---,0.00,VWS V14.01,2013-09-25 22:53:00,
2013-09-25 18:58:00,70.3,55.8,29.84,NE,44,5.0,6.0,60,0.00,,---,0.00,VWS V14.01,2013-09-25 22:58:00,
2013-09-25 19:00:00,70.1,55.6,29.85,ENE,67,0.0,6.0,60,0.00,,---,0.00,VWS V15.00,2013-09-25 23:00:00,
2013-09-25 19:03:00,70.0,55.5,29.85,NE,37,1.0,3.0,60,0.00,,---,0.00,VWS V14.01,2013-09-25 23:03:00,
2013-09-25 19:08:00,69.7,55.7,29.85,ENE,65,0.0,3.0,61,0.00,,---,0.00,VWS V14.01,2013-09-25 23:08:00,
2013-09-25 19:13:00,69.3,55.7,29.85,ENE,77,1.0,3.0,62,0.00,,---,0.00,VWS V14.01,2013-09-25 23:13:00,
2013-09-25 19:18:00,68.9,55.4,29.85,ESE,103,1.0,4.0,62,0.00,,---,0.00,VWS V14.01,2013-09-25 23:18:00,
2013-09-25 19:23:00,68.6,55.5,29.85,ENE,75,2.0,4.0,63,0.00,,---,0.00,VWS V14.01,2013-09-25 23:23:00,
2013-09-25 19:28:00,68.2,55.1,29.85,East,89,1.0,4.0,63,0.00,,---,0.00,VWS V14.01,2013-09-25 23:28:00,
2013-09-25 19:30:00,68.0,55.0,29.85,East,97,0.0,4.0,63,0.00,,---,0.00,VWS V15.00,2013-09-25 23:30:00,
2013-09-25 19:33:00,67.9,55.3,29.85,East,97,0.0,0.0,64,0.00,,---,0.00,VWS V14.01,2013-09-25 23:33:00,
2013-09-25 19:38:00,67.3,54.7,29.85,North,1,0.0,2.0,64,0.00,,---,0.00,VWS V14.01,2013-09-25 23:38:00,
2013-09-25 19:43:00,66.8,55.1,29.85,North,4,1.0,2.0,66,0.00,,---,0.00,VWS V14.01,2013-09-25 23:43:00,
2013-09-25 19:48:00,66.4,55.1,29.85,ENE,58,1.0,2.0,67,0.00,,---,0.00,VWS V14.01,2013-09-25 23:48:00,
2013-09-25 19:53:00,66.0,54.7,29.85,North,358,0.0,2.0,67,0.00,,---,0.00,VWS V14.01,2013-09-25 23:53:00,
2013-09-25 19:58:00,65.8,55.0,29.85,NNW,347,0.0,2.0,68,0.00,,---,0.00,VWS V14.01,2013-09-25 23:58:00,
2013-09-25 20:00:00,65.6,54.8,29.85,NNW,347,0.0,2.0,68,0.00,,---,0.00,VWS V15.00,2013-09-26 00:00:00,
2013-09-25 20:03:00,65.5,54.7,29.85,NNW,347,0.0,0.0,68,0.00,,---,0.00,VWS V14.01,2013-09-26 00:03:00,
2013-09-25 20:08:00,65.2,54.8,29.85,NNW,347,0.0,0.0,69,0.00,,---,0.00,VWS V14.01,2013-09-26 00:08:00,
2013-09-25 20:13:00,64.7,54.7,29.86,NNW,347,0.0,0.0,70,0.00,,---,0.00,VWS V14.01,2013-09-26 00:13:00,
2013-09-25 20:18:00,64.4,54.8,29.86,NNW,347,0.0,0.0,71,0.00,,---,0.00,VWS V14.01,2013-09-26 00:18:00,
2013-09-25 20:23:00,64.0,54.8,29.86,NNW,347,0.0,0.0,72,0.00,,---,0.00,VWS V14.01,2013-09-26 00:23:00,
2013-09-25 20:28:00,63.5,54.3,29.86,NNW,347,0.0,0.0,72,0.00,,---,0.00,VWS V14.01,2013-09-26 00:28:00,
2013-09-25 20:30:00,63.3,54.9,29.86,NNW,347,0.0,0.0,74,0.00,,---,0.00,VWS V15.00,2013-09-26 00:30:00,
2013-09-25 20:33:00,63.2,54.8,29.86,NNW,348,0.0,0.0,74,0.00,,---,0.00,VWS V14.01,2013-09-26 00:33:00,
2013-09-25 20:38:00,62.9,54.5,29.86,North,349,0.0,0.0,74,0.00,,---,0.00,VWS V14.01,2013-09-26 00:38:00,
2013-09-25 20:43:00,62.5,54.5,29.86,NNW,348,0.0,0.0,75,0.00,,---,0.00,VWS V14.01,2013-09-26 00:43:00,
2013-09-25 20:48:00,62.0,54.4,29.86,North,349,0.0,0.0,76,0.00,,---,0.00,VWS V14.01,2013-09-26 00:48:00,
2013-09-25 20:53:00,61.6,54.3,29.86,North,349,0.0,0.0,77,0.00,,---,0.00,VWS V14.01,2013-09-26 00:53:00,
2013-09-25 20:58:00,61.3,54.4,29.86,North,349,0.0,0.0,78,0.00,,---,0.00,VWS V14.01,2013-09-26 00:58:00,
2013-09-25 21:00:00,61.2,54.6,29.86,North,349,0.0,0.0,79,0.00,,---,0.00,VWS V15.00,2013-09-26 01:00:00,
2013-09-25 21:03:00,61.1,54.9,29.86,North,349,0.0,0.0,80,0.00,,---,0.00,VWS V14.01,2013-09-26 01:03:00,
2013-09-25 21:08:00,60.7,54.5,29.86,North,349,0.0,0.0,80,0.00,,---,0.00,VWS V14.01,2013-09-26 01:08:00,
2013-09-25 21:13:00,60.3,54.5,29.87,NNW,348,0.0,0.0,81,0.00,,---,0.00,VWS V14.01,2013-09-26 01:13:00,
2013-09-25 21:18:00,59.9,54.1,29.87,North,349,0.0,0.0,81,0.00,,---,0.00,VWS V14.01,2013-09-26 01:18:00,
2013-09-25 21:23:00,59.5,54.0,29.87,North,349,0.0,0.0,82,0.00,,---,0.00,VWS V14.01,2013-09-26 01:23:00,
2013-09-25 21:28:00,59.2,54.0,29.87,North,349,0.0,0.0,83,0.00,,---,0.00,VWS V14.01,2013-09-26 01:28:00,
2013-09-25 21:30:00,59.1,54.0,29.87,NNW,348,0.0,0.0,83,0.00,,---,0.00,VWS V15.00,2013-09-26 01:30:00,
2013-09-25 21:33:00,59.1,54.3,29.87,North,349,0.0,0.0,84,0.00,,---,0.00,VWS V14.01,2013-09-26 01:33:00,
2013-09-25 21:38:00,59.1,54.3,29.87,North,349,0.0,0.0,84,0.00,,---,0.00,VWS V14.01,2013-09-26 01:38:00,
2013-09-25 21:43:00,58.8,54.3,29.87,North,349,0.0,0.0,85,0.00,,---,0.00,VWS V14.01,2013-09-26 01:43:00,
2013-09-25 21:48:00,58.8,54.3,29.87,North,349,0.0,0.0,85,0.00,,---,0.00,VWS V14.01,2013-09-26 01:48:00,
2013-09-25 21:53:00,58.6,53.8,29.87,North,349,0.0,0.0,84,0.00,,---,0.00,VWS V14.01,2013-09-26 01:53:00,
2013-09-25 21:58:00,58.4,53.6,29.88,North,349,0.0,0.0,84,0.00,,---,0.00,VWS V14.01,2013-09-26 01:58:00,
2013-09-25 22:00:00,58.3,53.8,29.87,North,349,0.0,0.0,85,0.00,,---,0.00,VWS V15.00,2013-09-26 02:00:00,
2013-09-25 22:03:00,58.1,53.6,29.87,North,349,0.0,0.0,85,0.00,,---,0.00,VWS V14.01,2013-09-26 02:03:00,
2013-09-25 22:08:00,57.8,53.7,29.88,North,349,0.0,0.0,86,0.00,,---,0.00,VWS V14.01,2013-09-26 02:08:00,
2013-09-25 22:13:00,57.6,54.1,29.88,North,349,0.0,0.0,88,0.00,,---,0.00,VWS V14.01,2013-09-26 02:13:00,
2013-09-25 22:18:00,57.3,53.8,29.88,North,349,0.0,0.0,88,0.00,,---,0.00,VWS V14.01,2013-09-26 02:18:00,
2013-09-25 22:23:00,57.0,53.8,29.88,North,349,0.0,0.0,89,0.00,,---,0.00,VWS V14.01,2013-09-26 02:23:00,
2013-09-25 22:28:00,56.7,53.8,29.88,North,349,0.0,0.0,90,0.00,,---,0.00,VWS V14.01,2013-09-26 02:28:00,
2013-09-25 22:30:00,56.5,53.6,29.88,North,349,0.0,0.0,90,0.00,,---,0.00,VWS V15.00,2013-09-26 02:30:00,
2013-09-25 22:33:00,56.3,53.4,29.88,North,349,0.0,0.0,90,0.00,,---,0.00,VWS V14.01,2013-09-26 02:33:00,
2013-09-25 22:38:00,56.1,53.2,29.88,North,349,0.0,0.0,90,0.00,,---,0.00,VWS V14.01,2013-09-26 02:38:00,
2013-09-25 22:43:00,56.0,53.4,29.88,North,349,0.0,0.0,91,0.00,,---,0.00,VWS V14.01,2013-09-26 02:43:00,
2013-09-25 22:48:00,55.8,53.2,29.88,NNW,348,0.0,0.0,91,0.00,,---,0.00,VWS V14.01,2013-09-26 02:48:00,
2013-09-25 22:53:00,55.5,52.9,29.89,North,349,0.0,0.0,91,0.00,,---,0.00,VWS V14.01,2013-09-26 02:53:00,
2013-09-25 22:58:00,55.4,53.1,29.89,NNW,348,0.0,0.0,92,0.00,,---,0.00,VWS V14.01,2013-09-26 02:58:00,
2013-09-25 23:00:00,55.5,53.2,29.89,North,349,0.0,0.0,92,0.00,,---,0.00,VWS V15.00,2013-09-26 03:00:00,
2013-09-25 23:03:00,55.5,53.2,29.89,North,349,0.0,0.0,92,0.00,,---,0.00,VWS V14.01,2013-09-26 03:03:00,
2013-09-25 23:08:00,55.6,53.3,29.89,North,349,0.0,0.0,92,0.00,,---,0.00,VWS V14.01,2013-09-26 03:08:00,
2013-09-25 23:13:00,55.7,53.4,29.89,North,349,0.0,0.0,92,0.00,,---,0.00,VWS V14.01,2013-09-26 03:13:00,
2013-09-25 23:18:00,55.7,53.4,29.89,North,349,0.0,0.0,92,0.00,,---,0.00,VWS V14.01,2013-09-26 03:18:00,
2013-09-25 23:24:00,55.7,53.4,29.89,North,349,0.0,0.0,92,0.00,,---,0.00,VWS V14.01,2013-09-26 03:24:00,
2013-09-25 23:29:00,55.7,53.4,29.89,North,349,0.0,0.0,92,0.00,,---,0.00,VWS V14.01,2013-09-26 03:29:00,
2013-09-25 23:30:00,55.7,53.4,29.89,North,349,0.0,0.0,92,0.00,,---,0.00,VWS V15.00,2013-09-26 03:30:00,
2013-09-25 23:34:00,55.7,53.4,29.89,North,349,0.0,0.0,92,0.00,,---,0.00,VWS V14.01,2013-09-26 03:34:00,
2013-09-25 23:39:00,55.6,53.3,29.89,North,350,0.0,0.0,92,0.00,,---,0.00,VWS V14.01,2013-09-26 03:39:00,
2013-09-25 23:44:00,55.4,53.1,29.89,North,349,0.0,0.0,92,0.00,,---,0.00,VWS V14.01,2013-09-26 03:44:00,
2013-09-25 23:49:00,55.1,52.8,29.89,North,349,0.0,0.0,92,0.00,,---,0.00,VWS V14.01,2013-09-26 03:49:00,
2013-09-25 23:54:00,55.1,53.1,29.89,North,349,0.0,0.0,93,0.00,,---,0.00,VWS V14.01,2013-09-26 03:54:00,
2013-09-25 23:59:00,55.0,53.0,29.89,North,350,0.0,0.0,93,0.00,,---,0.00,VWS V14.01,2013-09-26 03:59:00,